Location: Amsterdam
(30.7274°N, 84.4357°W)
Time: 16:15:20
(UTC+00:00)

Injun/Solrad 3 - Pass Details

Date: 22 February 2026
Orbit: 871 x 985 km, 66.8° (Epoch: 11 March)

Event Time Altitude Azimuth Distance (km) Brightness Sun altitude
Rises 01:48:15 0° 330° (NNW) 3,606 11.4 -30.3°
Reaches altitude 10° 01:50:47 10° 326° (NNW) 2,675 10.7 -30.8°
Maximum altitude 01:56:55 59° 249° (WSW) 1,105 8.4 -32.1°
Enters shadow 01:57:49 54° 215° (SW) 1,164 8.4 -32.3°
Drops below altitude 10° 02:03:09 10° 171° (S) 2,719 - -33.4°
Sets 02:05:46 0° 168° (SSE) 3,669 - -34.0°
